JZA408 CYQU-CYYC

Flight info

Callsign JZA408
Flight time 1h 15m
Altitude 25000
Route KODIT Q925 ADVOX ADVOX9
Aircraft DH8D/M-SDE2E3FGRY/H

Departure

Time 2026-04-22 23:26
Airport Grande Prairie Airport (CYQU)

Arrival

Time 2026-04-23 00:41
Airport Calgary International Airport (CYYC)
Time Latitude Longitude Altitude Speed Heading
2026-04-22 22:37 55.18191 -118.87450 2196 ft 0 kts 224°
2026-04-22 23:21 55.18189 -118.87453 2196 ft 2 kts 224°
2026-04-22 23:21 55.18174 -118.87503 2196 ft 7 kts 252°
2026-04-22 23:21 55.18157 -118.87587 2197 ft 7 kts 244°
2026-04-22 23:22 55.18118 -118.87678 2197 ft 11 kts 226°
2026-04-22 23:22 55.18056 -118.87784 2197 ft 12 kts 225°
2026-04-22 23:22 55.17990 -118.87865 2197 ft 11 kts 186°
2026-04-22 23:22 55.17919 -118.87839 2197 ft 10 kts 162°
2026-04-22 23:23 55.17854 -118.87807 2196 ft 9 kts 165°
2026-04-22 23:23 55.17792 -118.87778 2196 ft 9 kts 164°
2026-04-22 23:23 55.17733 -118.87748 2196 ft 8 kts 163°
2026-04-22 23:23 55.17683 -118.87688 2195 ft 9 kts 135°
2026-04-22 23:24 55.17637 -118.87608 2195 ft 8 kts 135°
2026-04-22 23:24 55.17594 -118.87532 2194 ft 8 kts 134°
2026-04-22 23:24 55.17546 -118.87443 2194 ft 15 kts 134°
2026-04-22 23:24 55.17444 -118.87466 2194 ft 14 kts 225°
2026-04-22 23:25 55.17421 -118.87654 2194 ft 28 kts 311°
2026-04-22 23:25 55.17736 -118.88223 2197 ft 103 kts 318°
2026-04-22 23:25 55.18396 -118.89360 2285 ft 149 kts 317°
2026-04-22 23:25 55.19168 -118.90634 2744 ft 164 kts 319°
2026-04-22 23:26 55.19923 -118.92130 3414 ft 166 kts 310°
2026-04-22 23:26 55.20383 -118.94144 3645 ft 195 kts 275°
2026-04-22 23:26 55.19993 -118.96416 4175 ft 203 kts 238°
2026-04-22 23:26 55.18971 -118.98151 4706 ft 207 kts 223°
2026-04-22 23:27 55.17867 -118.99774 5261 ft 210 kts 223°
2026-04-22 23:27 55.16753 -119.01426 5780 ft 213 kts 223°
2026-04-22 23:27 55.15608 -119.03109 6329 ft 215 kts 223°
2026-04-22 23:27 55.14457 -119.04802 6890 ft 217 kts 223°
2026-04-22 23:28 55.13225 -119.06335 7458 ft 221 kts 203°
2026-04-22 23:28 55.11715 -119.06392 7925 ft 222 kts 156°
2026-04-22 23:28 55.10589 -119.04694 8423 ft 216 kts 119°
2026-04-22 23:28 55.09678 -119.02570 8953 ft 222 kts 136°
2026-04-22 23:29 55.08419 -119.01008 9477 ft 226 kts 144°
2026-04-22 23:29 55.07116 -118.99463 10030 ft 228 kts 143°
2026-04-22 23:29 55.05799 -118.97827 10604 ft 230 kts 142°
2026-04-22 23:29 55.04521 -118.96183 11136 ft 233 kts 141°
2026-04-22 23:30 55.03215 -118.94458 11689 ft 235 kts 141°
2026-04-22 23:30 55.01929 -118.92729 12263 ft 236 kts 141°
2026-04-22 23:30 55.00617 -118.90942 12791 ft 239 kts 141°
2026-04-22 23:30 54.99306 -118.89138 13296 ft 242 kts 141°
2026-04-22 23:31 54.97987 -118.87311 13822 ft 244 kts 141°
2026-04-22 23:31 54.96654 -118.85457 14337 ft 245 kts 141°
2026-04-22 23:31 54.95325 -118.83601 14822 ft 246 kts 141°
2026-04-22 23:31 54.93975 -118.81713 15284 ft 249 kts 142°
2026-04-22 23:32 54.92618 -118.79814 15727 ft 250 kts 142°
2026-04-22 23:32 54.91267 -118.77920 16170 ft 252 kts 143°
2026-04-22 23:32 54.89890 -118.75990 16604 ft 252 kts 143°
2026-04-22 23:32 54.88525 -118.74077 17028 ft 253 kts 144°
2026-04-22 23:33 54.87151 -118.72154 17371 ft 255 kts 144°
2026-04-22 23:33 54.85776 -118.70225 17797 ft 255 kts 145°
2026-04-22 23:33 54.84382 -118.68276 18175 ft 256 kts 145°
2026-04-22 23:33 54.83000 -118.66342 18552 ft 257 kts 146°
2026-04-22 23:34 54.81611 -118.64403 18865 ft 260 kts 146°
2026-04-22 23:34 54.80208 -118.62442 19238 ft 259 kts 146°
2026-04-22 23:34 54.78792 -118.60466 19570 ft 260 kts 146°
2026-04-22 23:34 54.77392 -118.58515 19879 ft 261 kts 146°
2026-04-22 23:35 54.75962 -118.56522 20193 ft 262 kts 146°
2026-04-22 23:35 54.74551 -118.54558 20523 ft 262 kts 146°
2026-04-22 23:35 54.73114 -118.52561 20769 ft 264 kts 146°
2026-04-22 23:35 54.71667 -118.50551 21049 ft 264 kts 146°
2026-04-22 23:36 54.70217 -118.48538 21333 ft 264 kts 146°
2026-04-22 23:36 54.68764 -118.46525 21569 ft 267 kts 146°
2026-04-22 23:36 54.67336 -118.44545 21890 ft 263 kts 146°
2026-04-22 23:36 54.65900 -118.42554 22196 ft 262 kts 146°
2026-04-22 23:37 54.64478 -118.40589 22445 ft 260 kts 146°
2026-04-22 23:37 54.63076 -118.38650 22761 ft 257 kts 146°
2026-04-22 23:37 54.61669 -118.36710 22963 ft 257 kts 147°
2026-04-22 23:37 54.60269 -118.34782 23173 ft 257 kts 147°
2026-04-22 23:38 54.58877 -118.32866 23331 ft 257 kts 148°
2026-04-22 23:38 54.57470 -118.30933 23460 ft 259 kts 148°
2026-04-22 23:38 54.56067 -118.29005 23631 ft 259 kts 148°
2026-04-22 23:38 54.54644 -118.27052 23798 ft 259 kts 148°
2026-04-22 23:39 54.53256 -118.25143 24061 ft 254 kts 148°
2026-04-22 23:39 54.51862 -118.23230 24249 ft 253 kts 148°
2026-04-22 23:39 54.50496 -118.21353 24387 ft 252 kts 148°
2026-04-22 23:39 54.49113 -118.19454 24522 ft 252 kts 148°
2026-04-22 23:40 54.47749 -118.17582 24716 ft 249 kts 148°
2026-04-22 23:40 54.46404 -118.15739 24840 ft 248 kts 148°
2026-04-22 23:40 54.45031 -118.13864 24919 ft 250 kts 148°
2026-04-22 23:40 54.43672 -118.12014 24935 ft 253 kts 148°
2026-04-22 23:41 54.42262 -118.10097 24950 ft 259 kts 148°
2026-04-22 23:41 54.40841 -118.08167 24949 ft 265 kts 148°
2026-04-22 23:41 54.39374 -118.06175 24958 ft 272 kts 147°
2026-04-22 23:41 54.37880 -118.04148 24952 ft 279 kts 147°
2026-04-22 23:42 54.36343 -118.02062 24944 ft 285 kts 147°
2026-04-22 23:42 54.34757 -117.99909 24949 ft 292 kts 147°
2026-04-22 23:42 54.33170 -117.97759 24934 ft 298 kts 147°
2026-04-22 23:42 54.31532 -117.95539 24942 ft 303 kts 147°
2026-04-22 23:43 54.29845 -117.93256 24949 ft 309 kts 147°
2026-04-22 23:43 54.28156 -117.90974 24941 ft 315 kts 147°
2026-04-22 23:43 54.26419 -117.88629 24936 ft 320 kts 147°
2026-04-22 23:43 54.24681 -117.86284 24932 ft 324 kts 147°
2026-04-22 23:44 54.22909 -117.83895 24935 ft 327 kts 147°
2026-04-22 23:44 54.21101 -117.81462 24934 ft 330 kts 147°
2026-04-22 23:44 54.19295 -117.79034 24938 ft 332 kts 147°
2026-04-22 23:44 54.17471 -117.76585 24941 ft 334 kts 147°
2026-04-22 23:45 54.15657 -117.74153 24941 ft 335 kts 147°
2026-04-22 23:45 54.13805 -117.71672 24931 ft 337 kts 147°
2026-04-22 23:45 54.11962 -117.69209 24934 ft 338 kts 147°
2026-04-22 23:45 54.10122 -117.66750 24936 ft 338 kts 147°
2026-04-22 23:46 54.08286 -117.64300 24945 ft 338 kts 147°
2026-04-22 23:46 54.06412 -117.61803 24940 ft 339 kts 147°
2026-04-22 23:46 54.04554 -117.59332 24935 ft 339 kts 147°
2026-04-22 23:46 54.02704 -117.56872 24940 ft 339 kts 147°
2026-04-22 23:47 54.00854 -117.54417 24943 ft 339 kts 147°
2026-04-22 23:47 53.98978 -117.51929 24948 ft 339 kts 148°
2026-04-22 23:47 53.97116 -117.49462 24943 ft 339 kts 147°
2026-04-22 23:47 53.95264 -117.47014 24946 ft 339 kts 148°
2026-04-22 23:48 53.93405 -117.44557 24949 ft 339 kts 147°
2026-04-22 23:48 53.91536 -117.42091 24942 ft 339 kts 147°
2026-04-22 23:48 53.89670 -117.39632 24944 ft 339 kts 148°
2026-04-22 23:48 53.87824 -117.37202 24945 ft 338 kts 148°
2026-04-22 23:49 53.85955 -117.34744 24949 ft 338 kts 148°
2026-04-22 23:49 53.84098 -117.32304 24945 ft 337 kts 148°
2026-04-22 23:49 53.82258 -117.29892 24945 ft 337 kts 148°
2026-04-22 23:49 53.80392 -117.27446 24953 ft 337 kts 149°
2026-04-22 23:50 53.78557 -117.25045 24947 ft 336 kts 149°
2026-04-22 23:50 53.76690 -117.22605 24948 ft 336 kts 149°
2026-04-22 23:50 53.74860 -117.20216 24942 ft 336 kts 148°
2026-04-22 23:50 53.73008 -117.17799 24935 ft 336 kts 149°
2026-04-22 23:51 53.71148 -117.15376 24937 ft 336 kts 149°
2026-04-22 23:51 53.69319 -117.12997 24938 ft 336 kts 149°
2026-04-22 23:51 53.67452 -117.10569 24932 ft 336 kts 149°
2026-04-22 23:51 53.65625 -117.08197 24927 ft 335 kts 149°
2026-04-22 23:52 53.63784 -117.05810 24929 ft 334 kts 149°
2026-04-22 23:52 53.61920 -117.03396 24936 ft 334 kts 149°
2026-04-22 23:52 53.60086 -117.01022 24932 ft 334 kts 149°
2026-04-22 23:52 53.58249 -116.98648 24933 ft 333 kts 149°
2026-04-22 23:53 53.56428 -116.96297 24929 ft 332 kts 149°
2026-04-22 23:53 53.54591 -116.93928 24933 ft 332 kts 149°
2026-04-22 23:53 53.52750 -116.91556 24937 ft 332 kts 149°
2026-04-22 23:53 53.50937 -116.89223 24937 ft 331 kts 149°
2026-04-22 23:54 53.49100 -116.86863 24941 ft 331 kts 149°
2026-04-22 23:54 53.47278 -116.84524 24938 ft 332 kts 149°
2026-04-22 23:54 53.45452 -116.82184 24936 ft 331 kts 149°
2026-04-22 23:54 53.43623 -116.79841 24941 ft 331 kts 149°
2026-04-22 23:55 53.41788 -116.77493 24945 ft 331 kts 149°
2026-04-22 23:55 53.39939 -116.75130 24946 ft 331 kts 149°
2026-04-22 23:55 53.38127 -116.72817 24939 ft 331 kts 149°
2026-04-22 23:55 53.36286 -116.70470 24935 ft 331 kts 149°
2026-04-22 23:56 53.34449 -116.68129 24933 ft 330 kts 149°
2026-04-22 23:56 53.32629 -116.65813 24926 ft 330 kts 149°
2026-04-22 23:56 53.30807 -116.63497 24923 ft 330 kts 150°
2026-04-22 23:56 53.28962 -116.61155 24932 ft 330 kts 149°
2026-04-22 23:57 53.27148 -116.58852 24927 ft 330 kts 149°
2026-04-22 23:57 53.25312 -116.56527 24929 ft 329 kts 149°
2026-04-22 23:57 53.23495 -116.54229 24928 ft 330 kts 149°
2026-04-22 23:57 53.21677 -116.51932 24922 ft 330 kts 149°
2026-04-22 23:58 53.19859 -116.49637 24924 ft 329 kts 149°
2026-04-22 23:58 53.18023 -116.47321 24916 ft 329 kts 149°
2026-04-22 23:58 53.16207 -116.45033 24915 ft 329 kts 149°
2026-04-22 23:58 53.14366 -116.42715 24913 ft 329 kts 149°
2026-04-22 23:59 53.12546 -116.40427 24911 ft 329 kts 149°
2026-04-22 23:59 53.10721 -116.38135 24913 ft 329 kts 149°
2026-04-22 23:59 53.08891 -116.35840 24911 ft 329 kts 149°
2026-04-22 23:59 53.07062 -116.33549 24905 ft 328 kts 150°
2026-04-23 00:00 53.03432 -116.29005 24889 ft 327 kts 150°
2026-04-23 00:00 53.01611 -116.26730 24881 ft 326 kts 150°
2026-04-23 00:00 52.99809 -116.24482 24891 ft 326 kts 150°
2026-04-23 00:01 52.97979 -116.22201 24871 ft 326 kts 150°
2026-04-23 00:01 52.96174 -116.19954 24884 ft 326 kts 150°
2026-04-23 00:01 52.94365 -116.17705 24885 ft 326 kts 150°
2026-04-23 00:01 52.92553 -116.15456 24882 ft 326 kts 150°
2026-04-23 00:02 52.90734 -116.13198 24877 ft 326 kts 150°
2026-04-23 00:02 52.88909 -116.10935 24899 ft 327 kts 150°
2026-04-23 00:02 52.87099 -116.08693 24892 ft 326 kts 150°
2026-04-23 00:02 52.85292 -116.06459 24881 ft 326 kts 150°
2026-04-23 00:03 52.83477 -116.04217 24892 ft 327 kts 150°
2026-04-23 00:03 52.81648 -116.01959 24901 ft 327 kts 150°
2026-04-23 00:03 52.79838 -115.99728 24899 ft 328 kts 151°
2026-04-23 00:03 52.78006 -115.97472 24880 ft 328 kts 151°
2026-04-23 00:04 52.76179 -115.95222 24872 ft 328 kts 151°
2026-04-23 00:04 52.74354 -115.92979 24890 ft 327 kts 151°
2026-04-23 00:04 52.72525 -115.90733 24879 ft 328 kts 151°
2026-04-23 00:04 52.70694 -115.88488 24884 ft 327 kts 151°
2026-04-23 00:05 52.68846 -115.86224 24874 ft 327 kts 151°
2026-04-23 00:05 52.67020 -115.83988 24869 ft 327 kts 151°
2026-04-23 00:05 52.65194 -115.81757 24864 ft 327 kts 151°
2026-04-23 00:05 52.63356 -115.79513 24880 ft 327 kts 151°
2026-04-23 00:06 52.61536 -115.77318 24851 ft 327 kts 152°
2026-04-23 00:06 52.59692 -115.75153 24878 ft 326 kts 152°
2026-04-23 00:06 52.57845 -115.72990 24879 ft 327 kts 152°
2026-04-23 00:06 52.55991 -115.70822 24849 ft 326 kts 153°
2026-04-23 00:07 52.54138 -115.68654 24855 ft 326 kts 152°
2026-04-23 00:07 52.52278 -115.66479 24862 ft 326 kts 152°
2026-04-23 00:07 52.50453 -115.64346 24852 ft 326 kts 152°
2026-04-23 00:07 52.48585 -115.62165 24830 ft 326 kts 152°
2026-04-23 00:08 52.46758 -115.60033 24851 ft 325 kts 152°
2026-04-23 00:08 52.44901 -115.57868 24859 ft 325 kts 152°
2026-04-23 00:08 52.43070 -115.55735 24863 ft 325 kts 153°
2026-04-23 00:08 52.41213 -115.53574 24853 ft 325 kts 152°
2026-04-23 00:09 52.39360 -115.51420 24858 ft 325 kts 153°
2026-04-23 00:09 52.37515 -115.49277 24842 ft 325 kts 153°
2026-04-23 00:09 52.35660 -115.47126 24829 ft 325 kts 153°
2026-04-23 00:09 52.33824 -115.44997 24848 ft 324 kts 153°
2026-04-23 00:10 52.31979 -115.42862 24846 ft 324 kts 153°
2026-04-23 00:10 52.30152 -115.40749 24822 ft 324 kts 153°
2026-04-23 00:10 52.28307 -115.38618 24832 ft 324 kts 153°
2026-04-23 00:10 52.26457 -115.36481 24838 ft 324 kts 153°
2026-04-23 00:11 52.24603 -115.34345 24834 ft 324 kts 154°
2026-04-23 00:11 52.22783 -115.32247 24849 ft 322 kts 154°
2026-04-23 00:11 52.20956 -115.30144 24842 ft 322 kts 154°
2026-04-23 00:11 52.19103 -115.28015 24827 ft 322 kts 154°
2026-04-23 00:12 52.17276 -115.25917 24845 ft 322 kts 154°
2026-04-23 00:12 52.15465 -115.23840 24847 ft 322 kts 154°
2026-04-23 00:12 52.13620 -115.21726 24825 ft 322 kts 154°
2026-04-23 00:12 52.11789 -115.19630 24831 ft 322 kts 154°
2026-04-23 00:13 52.09967 -115.17547 24851 ft 322 kts 154°
2026-04-23 00:13 52.08099 -115.15414 24848 ft 322 kts 154°
2026-04-23 00:13 52.06264 -115.13320 24832 ft 322 kts 154°
2026-04-23 00:13 52.04440 -115.11240 24840 ft 322 kts 154°
2026-04-23 00:14 52.02605 -115.09151 24822 ft 321 kts 154°
2026-04-23 00:14 52.00765 -115.07056 24821 ft 321 kts 154°
2026-04-23 00:14 51.98923 -115.04959 24818 ft 321 kts 154°
2026-04-23 00:14 51.97113 -115.02902 24822 ft 321 kts 154°
2026-04-23 00:15 51.95253 -115.00790 24822 ft 321 kts 154°
2026-04-23 00:15 51.93426 -114.98717 24827 ft 322 kts 154°
2026-04-23 00:15 51.91600 -114.96647 24826 ft 322 kts 154°
2026-04-23 00:15 51.89759 -114.94563 24829 ft 322 kts 154°
2026-04-23 00:16 51.87913 -114.92477 24822 ft 322 kts 154°
2026-04-23 00:16 51.86068 -114.90398 24819 ft 323 kts 154°
2026-04-23 00:16 51.84215 -114.88312 24822 ft 323 kts 154°
2026-04-23 00:16 51.82368 -114.86232 24811 ft 324 kts 154°
2026-04-23 00:17 51.80492 -114.84127 24692 ft 327 kts 153°
2026-04-23 00:17 51.78616 -114.82022 24562 ft 330 kts 153°
2026-04-23 00:17 51.76744 -114.79916 24435 ft 330 kts 153°
2026-04-23 00:17 51.74855 -114.77794 24305 ft 331 kts 153°
2026-04-23 00:18 51.72950 -114.75655 24170 ft 331 kts 153°
2026-04-23 00:18 51.71025 -114.73502 23535 ft 341 kts 152°
2026-04-23 00:18 51.69087 -114.71323 23002 ft 333 kts 152°
2026-04-23 00:18 51.67217 -114.69212 22533 ft 323 kts 152°
2026-04-23 00:19 51.65427 -114.67196 22097 ft 313 kts 152°
2026-04-23 00:19 51.63645 -114.65196 21647 ft 304 kts 152°
2026-04-23 00:19 51.61946 -114.63295 21232 ft 295 kts 152°
2026-04-23 00:19 51.60241 -114.61400 20825 ft 297 kts 152°
2026-04-23 00:20 51.58516 -114.59499 20396 ft 300 kts 151°
2026-04-23 00:20 51.56812 -114.57596 19993 ft 302 kts 150°
2026-04-23 00:20 51.55095 -114.55594 19550 ft 303 kts 149°
2026-04-23 00:20 51.53400 -114.53603 19137 ft 303 kts 149°
2026-04-23 00:21 51.51709 -114.51617 18855 ft 298 kts 149°
2026-04-23 00:21 51.50028 -114.49645 18485 ft 296 kts 148°
2026-04-23 00:21 51.48388 -114.47726 18121 ft 296 kts 148°
2026-04-23 00:21 51.46798 -114.45580 17723 ft 300 kts 141°
2026-04-23 00:22 51.45290 -114.43217 17295 ft 301 kts 139°
2026-04-23 00:22 51.43814 -114.40884 16880 ft 302 kts 138°
2026-04-23 00:22 51.42299 -114.38491 16464 ft 304 kts 138°
2026-04-23 00:22 51.40801 -114.36131 16044 ft 303 kts 137°
2026-04-23 00:23 51.39292 -114.33765 15597 ft 303 kts 138°
2026-04-23 00:23 51.37792 -114.31408 15187 ft 301 kts 138°
2026-04-23 00:23 51.36279 -114.29041 14774 ft 302 kts 137°
2026-04-23 00:23 51.34793 -114.26720 14348 ft 302 kts 137°
2026-04-23 00:24 51.33271 -114.24347 13939 ft 303 kts 137°
2026-04-23 00:24 51.31776 -114.22021 13498 ft 303 kts 136°
2026-04-23 00:24 51.30264 -114.19670 13086 ft 302 kts 135°
2026-04-23 00:24 51.28673 -114.17429 12568 ft 304 kts 147°
2026-04-23 00:25 51.26713 -114.16420 12191 ft 296 kts 176°
2026-04-23 00:25 51.24641 -114.16327 11817 ft 293 kts 181°
2026-04-23 00:25 51.22620 -114.16317 11398 ft 293 kts 181°
2026-04-23 00:25 51.20573 -114.16318 10998 ft 292 kts 181°
2026-04-23 00:26 51.18559 -114.16322 10613 ft 292 kts 180°
2026-04-23 00:26 51.16507 -114.16323 10211 ft 293 kts 180°
2026-04-23 00:26 51.14447 -114.16325 9804 ft 294 kts 179°
2026-04-23 00:26 51.12384 -114.16325 9393 ft 295 kts 180°
2026-04-23 00:27 51.10326 -114.16325 8984 ft 296 kts 180°
2026-04-23 00:27 51.08279 -114.16324 8576 ft 295 kts 180°
2026-04-23 00:27 51.06198 -114.16322 8160 ft 294 kts 180°
2026-04-23 00:27 51.04171 -114.16318 7880 ft 283 kts 179°
2026-04-23 00:28 51.02262 -114.16311 7947 ft 267 kts 179°
2026-04-23 00:28 51.00419 -114.16312 7944 ft 263 kts 179°
2026-04-23 00:28 50.98579 -114.16312 7911 ft 263 kts 180°
2026-04-23 00:28 50.96734 -114.16313 7880 ft 263 kts 179°
2026-04-23 00:29 50.94903 -114.16313 7864 ft 263 kts 179°
2026-04-23 00:29 50.93055 -114.16120 7594 ft 263 kts 162°
2026-04-23 00:29 50.91615 -114.14678 7227 ft 237 kts 119°
2026-04-23 00:29 50.91132 -114.12393 6929 ft 208 kts 77°
2026-04-23 00:30 50.91374 -114.10245 6770 ft 195 kts 66°
2026-04-23 00:30 50.91667 -114.08158 6674 ft 191 kts 68°
2026-04-23 00:30 50.91827 -114.06056 6563 ft 193 kts 81°
2026-04-23 00:30 50.91722 -114.03992 6529 ft 185 kts 82°
2026-04-23 00:31 50.91600 -114.01969 6521 ft 185 kts 83°
2026-04-23 00:31 50.91484 -113.99932 6514 ft 182 kts 83°
2026-04-23 00:31 50.91507 -113.97987 6502 ft 166 kts 58°
2026-04-23 00:31 50.92086 -113.96582 6513 ft 149 kts 39°
2026-04-23 00:32 50.92729 -113.95301 6543 ft 149 kts 40°
2026-04-23 00:32 50.93389 -113.93980 6534 ft 153 kts 40°
2026-04-23 00:32 50.94042 -113.92629 6521 ft 159 kts 46°
2026-04-23 00:32 50.94289 -113.90793 6511 ft 186 kts 85°
2026-04-23 00:33 50.93683 -113.88882 6509 ft 209 kts 125°
2026-04-23 00:33 50.92368 -113.87741 6508 ft 223 kts 166°
2026-04-23 00:33 50.90839 -113.87921 6516 ft 222 kts 206°
2026-04-23 00:33 50.89663 -113.89322 6511 ft 207 kts 245°
2026-04-23 00:34 50.89247 -113.91322 6506 ft 175 kts 285°
2026-04-23 00:34 50.89663 -113.92902 6500 ft 145 kts 326°
2026-04-23 00:34 50.90517 -113.93586 6508 ft 137 kts 343°
2026-04-23 00:34 50.91414 -113.94192 6513 ft 140 kts 335°
2026-04-23 00:35 50.92232 -113.95052 6518 ft 144 kts 332°
2026-04-23 00:35 50.93074 -113.95932 6535 ft 146 kts 333°
2026-04-23 00:35 50.93943 -113.96832 6543 ft 149 kts 333°
2026-04-23 00:35 50.94815 -113.97728 6535 ft 151 kts 332°
2026-04-23 00:36 50.95715 -113.98598 6517 ft 151 kts 341°
2026-04-23 00:36 50.96773 -113.98747 6409 ft 156 kts 359°
2026-04-23 00:36 50.97865 -113.98884 6190 ft 154 kts 353°
2026-04-23 00:36 50.98889 -113.98989 5894 ft 137 kts 358°
2026-04-23 00:37 50.99767 -113.99011 5639 ft 115 kts 357°
2026-04-23 00:37 51.00497 -113.99037 5428 ft 98 kts 359°
2026-04-23 00:37 51.01182 -113.99021 5444 ft 101 kts
2026-04-23 00:37 51.01926 -113.99012 5414 ft 114 kts 359°
2026-04-23 00:38 51.02741 -113.99025 5245 ft 118 kts 358°
2026-04-23 00:38 51.03561 -113.99033 5052 ft 117 kts 359°
2026-04-23 00:38 51.04375 -113.99035 4875 ft 115 kts 359°
2026-04-23 00:38 51.05157 -113.99036 4723 ft 112 kts 360°
2026-04-23 00:39 51.05958 -113.99043 4621 ft 114 kts 358°
2026-04-23 00:39 51.06761 -113.99040 4437 ft 117 kts
2026-04-23 00:39 51.07561 -113.99022 4342 ft 112 kts 357°
2026-04-23 00:39 51.08369 -113.99056 4084 ft 121 kts 357°
2026-04-23 00:40 51.09199 -113.99049 3960 ft 116 kts 358°
2026-04-23 00:40 51.10002 -113.99046 3776 ft 114 kts 358°
2026-04-23 00:40 51.10792 -113.99041 3635 ft 114 kts 360°
2026-04-23 00:40 51.11562 -113.99037 3567 ft 101 kts
2026-04-23 00:41 51.12148 -113.99032 3567 ft 53 kts 359°
2026-04-23 00:41 51.12309 -113.99066 3567 ft 14 kts 341°
2026-04-23 00:41 51.12374 -113.99111 3567 ft 6 kts 335°
2026-04-23 00:41 51.12410 -113.99142 3567 ft 8 kts 332°
2026-04-23 00:42 51.12452 -113.99180 3567 ft 0 kts 329°
2026-04-23 00:42 51.12478 -113.99204 3567 ft 5 kts 329°
2026-04-23 00:42 51.12522 -113.99244 3567 ft 8 kts 330°
2026-04-23 00:43 51.12563 -113.99282 3567 ft 3 kts 330°
2026-04-23 00:43 51.12591 -113.99302 3567 ft 9 kts 346°
2026-04-23 00:43 51.12659 -113.99303 3567 ft 6 kts 360°
2026-04-23 00:43 51.12688 -113.99319 3567 ft 7 kts 318°
2026-04-23 00:44 51.12701 -113.99420 3567 ft 10 kts 270°
2026-04-23 00:44 51.12700 -113.99541 3567 ft 10 kts 270°
2026-04-23 00:44 51.12700 -113.99661 3567 ft 11 kts 270°
2026-04-23 00:44 51.12700 -113.99782 3567 ft 9 kts 271°
2026-04-23 00:45 51.12700 -113.99906 3567 ft 12 kts 271°
2026-04-23 00:45 51.12701 -114.00053 3567 ft 15 kts 272°
2026-04-23 00:45 51.12700 -114.00200 3567 ft 11 kts 270°
2026-04-23 00:45 51.12700 -114.00304 3567 ft 8 kts 271°
2026-04-23 00:46 51.12701 -114.00407 3567 ft 9 kts 270°
2026-04-23 00:46 51.12701 -114.00531 3567 ft 11 kts 272°
2026-04-23 00:46 51.12716 -114.00628 3567 ft 7 kts 307°
2026-04-23 00:46 51.12739 -114.00698 3567 ft 9 kts 281°
2026-04-23 00:47 51.12745 -114.00823 3567 ft 10 kts 274°
2026-04-23 00:47 51.12749 -114.00922 3567 ft 8 kts 275°
2026-04-23 00:47 51.12773 -114.01007 3567 ft 7 kts 307°
2026-04-23 00:47 51.12804 -114.01076 3567 ft 7 kts 306°
2026-04-23 00:48 51.12829 -114.01125 3567 ft 4 kts 12°
2026-04-23 00:48 51.12863 -114.01092 3567 ft 4 kts 24°
2026-04-23 00:48 51.12880 -114.01090 3567 ft 3 kts 346°
2026-04-23 00:48 51.12908 -114.01121 3567 ft 3 kts 320°
2026-04-23 00:49 51.12922 -114.01141 3567 ft 2 kts 317°
2026-04-23 00:49 51.12931 -114.01155 3567 ft 0 kts 317°
2026-04-23 00:49 51.12933 -114.01157 3567 ft 0 kts 317°